| time (UTC) | temp F | wind direction | speed knots | gust knots | rain 1hr in | rain 24hr in | rain mn in | humidity % | barometer mb |
| 20260506170032 | 67 | 262 | 7.0 | 14.8 | 0.00 | 0.00 | 0.00 | 63 | 1015.6 |
| 20260506164529 | 67 | 267 | 7.8 | 14.8 | 0.00 | 0.00 | 0.00 | 65 | 1015.5 |
| 20260506163030 | 65 | 271 | 7.0 | 10.4 | 0.00 | 0.00 | 0.00 | 67 | 1015.7 |
| 20260506161531 | 64 | 277 | 7.8 | 20.0 | 0.00 | 0.00 | 0.00 | 68 | 1016.1 |
| 20260506154529 | 62 | 269 | 8.7 | 16.5 | 0.00 | 0.00 | 0.00 | 70 | 1015.8 |
| 20260506153029 | 62 | 258 | 8.7 | 15.6 | 0.00 | 0.00 | 0.00 | 72 | 1015.7 |
| 20260506151530 | 62 | 251 | 2.6 | 8.7 | 0.00 | 0.00 | 0.00 | 72 | 1015.7 |
| 20260506150031 | 62 | 255 | 0.0 | 2.6 | 0.00 | 0.00 | 0.00 | 73 | 1015.7 |
| 20260506144646 | 60 | 233 | 0.9 | 2.6 | 0.00 | 0.00 | 0.00 | 78 | 1015.8 |
| 20260506143030 | 57 | 222 | 0.0 | 2.6 | 0.00 | 0.00 | 0.00 | 81 | 1015.8 |
| 20260506141608 | 55 | 196 | 0.0 | 3.5 | 0.00 | 0.00 | 0.00 | 86 | 1015.7 |
| 20260506140106 | 52 | 156 | 1.7 | 4.3 | 0.00 | 0.00 | 0.00 | 88 | 1015.6 |
| 20260506134534 | 52 | 147 | 1.7 | 6.1 | 0.00 | 0.00 | 0.00 | 88 | 1015.5 |
| 20260506133029 | 51 | 156 | 2.6 | 5.2 | 0.00 | 0.00 | 0.00 | 90 | 1015.4 |
| 20260506131532 | 50 | 152 | 1.7 | 2.6 | 0.00 | 0.00 | 0.00 | 89 | 1015.3 |
| 20260506130031 | 50 | 62 | 1.7 | 5.2 | 0.00 | 0.00 | 0.00 | 89 | 1015.3 |
| 20260506123030 | 51 | 83 | 0.9 | 4.3 | 0.00 | 0.00 | 0.00 | 89 | 1015.0 |
| 20260506121533 | 51 | 40 | 0.9 | 2.6 | 0.00 | 0.00 | 0.00 | 89 | 1014.8 |
| 20260506120107 | 51 | 47 | 1.7 | 3.5 | 0.00 | 0.00 | 0.00 | 90 | 1014.8 |
| 20260506113031 | 50 | 93 | 0.9 | 2.6 | 0.00 | 0.00 | 0.00 | 90 | 1014.5 |
| 20260506110030 | 50 | 258 | 0.0 | 3.5 | 0.00 | 0.00 | 0.00 | 88 | 1014.1 |
| 20260506103030 | 52 | 17 | 0.0 | 3.5 | 0.00 | 0.00 | 0.00 | 88 | 1013.9 |
| 20260506101532 | 51 | 46 | 2.6 | 3.5 | 0.00 | 0.00 | 0.00 | 88 | 1013.9 |
| 20260506100048 | 51 | 118 | 0.0 | 2.6 | 0.00 | 0.00 | 0.00 | 86 | 1013.9 |
| 20260506094532 | 52 | 1 | 1.7 | 4.3 | 0.00 | 0.00 | 0.00 | 86 | 1013.9 |
| 20260506093031 | 53 | 340 | 0.9 | 3.5 | 0.00 | 0.00 | 0.00 | 86 | 1013.8 |
| 20260506091529 | 53 | 303 | 1.7 | 5.2 | 0.00 | 0.00 | 0.00 | 86 | 1013.8 |
| 20260506084603 | 53 | 287 | 3.5 | 7.8 | 0.00 | 0.00 | 0.00 | 86 | 1013.6 |
| 20260506081607 | 53 | 301 | 2.6 | 6.1 | 0.00 | 0.00 | 0.00 | 86 | 1013.4 |
| 20260506073031 | 53 | 5 | 1.7 | 3.5 | 0.00 | 0.00 | 0.00 | 84 | 1013.1 |
| 20260506061532 | 55 | 359 | 6.1 | 10.4 | 0.00 | 0.00 | 0.00 | 82 | 1012.6 |
| 20260506050144 | 56 | 354 | 5.2 | 7.8 | 0.00 | 0.00 | 0.00 | 78 | 1012.0 |
| 20260506044532 | 57 | 2 | 4.3 | 7.0 | 0.00 | 0.00 | 0.00 | 77 | 1011.8 |
| 20260506043029 | 57 | 359 | 3.5 | 6.1 | 0.00 | 0.00 | 0.00 | 76 | 1011.6 |
| 20260506041605 | 58 | 348 | 5.2 | 9.6 | 0.00 | 0.00 | 0.00 | 76 | 1011.5 |
| 20260506034529 | 58 | 337 | 5.2 | 10.4 | 0.00 | 0.00 | 0.00 | 73 | 1011.1 |
| 20260506033106 | 60 | 345 | 4.3 | 7.0 | 0.00 | 0.00 | 0.00 | 71 | 1010.8 |
| 20260506031532 | 61 | 2 | 6.1 | 10.4 | 0.00 | 0.00 | 0.00 | 70 | 1010.6 |
| 20260506030032 | 62 | 347 | 6.1 | 11.3 | 0.00 | 0.00 | 0.00 | 69 | 1010.4 |
| 20260506024531 | 62 | 343 | 6.1 | 11.3 | 0.00 | 0.00 | 0.00 | 68 | 1010.2 |
| 20260506023029 | 63 | 358 | 6.1 | 11.3 | 0.00 | 0.00 | 0.00 | 66 | 1010.1 |
| 20260506021531 | 64 | 353 | 6.1 | 10.4 | 0.00 | 0.00 | 0.00 | 65 | 1009.9 |
| 20260506020030 | 64 | 7 | 7.0 | 12.2 | 0.00 | 0.00 | 0.00 | 65 | 1009.8 |
| 20260506014531 | 65 | 4 | 7.0 | 11.3 | 0.00 | 0.00 | 0.00 | 64 | 1009.8 |
| 20260506013032 | 65 | 344 | 6.1 | 10.4 | 0.00 | 0.00 | 0.00 | 63 | 1009.8 |
| 20260506011531 | 67 | 341 | 6.1 | 9.6 | 0.00 | 0.00 | 0.00 | 61 | 1009.7 |
| 20260506010031 | 68 | 338 | 6.1 | 13.0 | 0.00 | 0.00 | 0.00 | 60 | 1009.7 |
| 20260506004532 | 70 | 333 | 7.0 | 13.0 | 0.00 | 0.00 | 0.00 | 58 | 1009.7 |
| 20260506003029 | 71 | 334 | 7.0 | 13.0 | 0.00 | 0.00 | 0.00 | 57 | 1009.6 |
| 20260506001542 | 72 | 346 | 6.1 | 10.4 | 0.00 | 0.00 | 0.00 | 57 | 1009.5 |
| 20260505234530 | 73 | 336 | 5.2 | 9.6 | 0.00 | 0.00 | 0.00 | 57 | 1009.9 |
| 20260505233031 | 73 | 342 | 6.1 | 11.3 | 0.00 | 0.00 | 0.00 | 56 | 1009.9 |
| 20260505231531 | 74 | 347 | 6.1 | 11.3 | 0.00 | 0.00 | 0.00 | 56 | 1009.9 |
| 20260505230032 | 74 | 327 | 6.1 | 8.7 | 0.00 | 0.00 | 0.00 | 56 | 1010.0 |
| 20260505224532 | 74 | 293 | 4.3 | 8.7 | 0.00 | 0.00 | 0.00 | 56 | 1010.2 |
| 20260505223029 | 74 | 323 | 6.1 | 10.4 | 0.00 | 0.00 | 0.00 | 56 | 1010.2 |
| 20260505221532 | 74 | 332 | 6.1 | 12.2 | 0.00 | 0.00 | 0.00 | 56 | 1010.4 |
| 20260505220031 | 74 | 295 | 5.2 | 12.2 | 0.00 | 0.00 | 0.00 | 55 | 1010.6 |
| 20260505214532 | 74 | 292 | 6.1 | 12.2 | 0.00 | 0.00 | 0.00 | 56 | 1010.7 |
| 20260505213104 | 74 | 292 | 6.1 | 12.2 | 0.00 | 0.00 | 0.00 | 55 | 1010.7 |
| 20260505211530 | 74 | 291 | 6.1 | 11.3 | 0.00 | 0.00 | 0.00 | 55 | 1010.7 |
| 20260505210030 | 74 | 286 | 6.1 | 11.3 | 0.00 | 0.00 | 0.00 | 56 | 1010.9 |
| 20260505204531 | 73 | 291 | 7.0 | 13.0 | 0.00 | 0.00 | 0.00 | 55 | 1011.1 |
| 20260505203038 | 72 | 286 | 7.0 | 12.2 | 0.00 | 0.00 | 0.00 | 56 | 1011.1 |
| 20260505201529 | 72 | 287 | 7.0 | 13.0 | 0.00 | 0.00 | 0.00 | 56 | 1011.2 |
| 20260505200032 | 72 | 286 | 6.1 | 12.2 | 0.00 | 0.00 | 0.00 | 56 | 1011.3 |
| 20260505194605 | 72 | 283 | 6.1 | 15.6 | 0.00 | 0.00 | 0.00 | 57 | 1011.4 |
| 20260505193030 | 71 | 275 | 7.0 | 13.9 | 0.00 | 0.00 | 0.00 | 58 | 1011.6 |
| 20260505190106 | 70 | 282 | 7.0 | 12.2 | 0.00 | 0.00 | 0.00 | 59 | 1011.6 |
| 20260505184530 | 69 | 273 | 6.1 | 12.2 | 0.00 | 0.00 | 0.00 | 60 | 1011.8 |
| 20260505183030 | 68 | 279 | 7.0 | 13.9 | 0.00 | 0.00 | 0.00 | 61 | 1011.8 |
| 20260505173029 | 67 | 279 | 7.0 | 13.0 | 0.00 | 0.00 | 0.00 | 63 | 1011.8 |
| 20260505171605 | 66 | 274 | 6.1 | 12.2 | 0.00 | 0.00 | 0.00 | 64 | 1011.7 |